| time (UTC) | temp C | wind direction | speed KPH | gust KPH | rain 1hr cm | rain 24hr cm | rain mn cm | humidity % | barometer mb |
| 20260506143015 | 16 | 315 | 33.8 | 48.3 | 0.15 | 0.15 | 0.15 | 97 | 1012.4 |
| 20260506142015 | 20 | 270 | 12.9 | 30.6 | 0.03 | 0.03 | 0.03 | 100 | 1012.9 |
| 20260506141015 | 21 | 180 | 6.4 | 11.3 | 0.00 | 0.00 | 0.00 | 100 | 1011.6 |
| 20260506140015 | 21 | 180 | 4.8 | 9.7 | 0.00 | 0.00 | 0.00 | 100 | 1011.9 |
| 20260506135015 | 21 | 135 | 1.6 | 9.7 | 0.00 | 0.00 | 0.00 | 100 | 1011.7 |
| 20260506134015 | 21 | 157 | 1.6 | 4.8 | 0.00 | 0.00 | 0.00 | 100 | 1011.9 |
| 20260506133015 | 21 | 0.0 | 3.2 | 0.00 | 0.00 | 0.00 | 100 | 1011.6 | |
| 20260506132015 | 21 | 157 | 4.8 | 14.5 | 0.00 | 0.00 | 0.00 | 100 | 1010.7 |
| 20260506131116 | 21 | 157 | 3.2 | 9.7 | 0.00 | 0.00 | 0.00 | 100 | 1010.1 |
| 20260506130015 | 21 | 135 | 4.8 | 8.0 | 0.00 | 0.00 | 0.00 | 100 | 1010.3 |
| 20260506125015 | 21 | 135 | 3.2 | 9.7 | 0.00 | 0.00 | 0.00 | 100 | 1010.5 |
| 20260506124015 | 21 | 157 | 1.6 | 6.4 | 0.00 | 0.00 | 0.00 | 100 | 1010.4 |
| 20260506122015 | 21 | 135 | 3.2 | 8.0 | 0.00 | 0.00 | 0.00 | 100 | 1010.2 |
| 20260506120015 | 21 | 0.0 | 3.2 | 0.00 | 0.00 | 0.00 | 100 | 1010.5 | |
| 20260506115015 | 21 | 157 | 1.6 | 8.0 | 0.00 | 0.00 | 0.00 | 100 | 1010.5 |
| 20260506114015 | 21 | 157 | 1.6 | 8.0 | 0.00 | 0.00 | 0.00 | 100 | 1010.5 |
| 20260506113016 | 21 | 180 | 4.8 | 9.7 | 0.00 | 0.00 | 0.00 | 100 | 1010.6 |
| 20260506112015 | 21 | 180 | 8.0 | 16.1 | 0.00 | 0.00 | 0.00 | 100 | 1010.4 |
| 20260506111015 | 21 | 180 | 8.0 | 17.7 | 0.00 | 0.00 | 0.00 | 100 | 1010.5 |
| 20260506110115 | 21 | 180 | 8.0 | 17.7 | 0.00 | 0.00 | 0.00 | 100 | 1010.5 |
| 20260506105015 | 21 | 180 | 11.3 | 20.9 | 0.00 | 0.00 | 0.00 | 100 | 1010.6 |
| 20260506104016 | 21 | 180 | 8.0 | 17.7 | 0.00 | 0.00 | 0.00 | 100 | 1010.6 |
| 20260506103015 | 21 | 180 | 9.7 | 19.3 | 0.00 | 0.00 | 0.00 | 100 | 1010.8 |
| 20260506102015 | 21 | 180 | 11.3 | 19.3 | 0.00 | 0.00 | 0.00 | 99 | 1010.5 |
| 20260506101015 | 21 | 180 | 12.9 | 22.5 | 0.00 | 0.00 | 0.00 | 99 | 1010.7 |
| 20260506100015 | 21 | 180 | 11.3 | 20.9 | 0.00 | 0.00 | 0.00 | 99 | 1010.5 |
| 20260506095116 | 21 | 180 | 14.5 | 25.7 | 0.00 | 0.00 | 0.00 | 99 | 1010.5 |
| 20260506094016 | 21 | 180 | 14.5 | 22.5 | 0.00 | 0.00 | 0.00 | 99 | 1010.4 |
| 20260506093116 | 21 | 180 | 9.7 | 16.1 | 0.00 | 0.00 | 0.00 | 99 | 1010.3 |
| 20260506092016 | 21 | 157 | 11.3 | 20.9 | 0.00 | 0.00 | 0.00 | 99 | 1010.4 |
| 20260506091015 | 21 | 180 | 11.3 | 24.1 | 0.00 | 0.00 | 0.00 | 98 | 1010.5 |
| 20260506090015 | 21 | 180 | 11.3 | 27.4 | 0.00 | 0.00 | 0.00 | 98 | 1010.5 |
| 20260506085016 | 21 | 180 | 14.5 | 24.1 | 0.00 | 0.00 | 0.00 | 98 | 1010.4 |
| 20260506084116 | 21 | 180 | 8.0 | 12.9 | 0.00 | 0.00 | 0.00 | 98 | 1010.4 |
| 20260506083015 | 21 | 180 | 11.3 | 19.3 | 0.00 | 0.00 | 0.00 | 98 | 1010.3 |
| 20260506082015 | 21 | 180 | 11.3 | 20.9 | 0.00 | 0.00 | 0.00 | 97 | 1010.3 |
| 20260506081016 | 21 | 157 | 11.3 | 22.5 | 0.00 | 0.00 | 0.00 | 97 | 1010.3 |
| 20260506073015 | 22 | 180 | 14.5 | 25.7 | 0.00 | 0.00 | 0.00 | 97 | 1010.4 |
| 20260506072016 | 22 | 180 | 12.9 | 25.7 | 0.00 | 0.00 | 0.00 | 97 | 1010.3 |
| 20260506071015 | 22 | 180 | 14.5 | 24.1 | 0.00 | 0.00 | 0.00 | 97 | 1010.3 |
| 20260506062015 | 22 | 180 | 11.3 | 19.3 | 0.00 | 0.00 | 0.00 | 96 | 1010.5 |
| 20260506061116 | 22 | 157 | 9.7 | 19.3 | 0.00 | 0.00 | 0.00 | 96 | 1010.6 |
| 20260506060116 | 21 | 157 | 11.3 | 19.3 | 0.00 | 0.00 | 0.00 | 96 | 1010.5 |
| 20260506051016 | 21 | 157 | 6.4 | 11.3 | 0.00 | 0.00 | 0.00 | 92 | 1010.2 |
| 20260506045015 | 22 | 157 | 4.8 | 9.7 | 0.00 | 0.00 | 0.00 | 92 | 1010.2 |
| 20260506043115 | 21 | 157 | 4.8 | 9.7 | 0.00 | 0.00 | 0.00 | 92 | 1010.2 |
| 20260506042015 | 21 | 157 | 3.2 | 6.4 | 0.00 | 0.00 | 0.00 | 91 | |
| 20260506041015 | 22 | 157 | 3.2 | 6.4 | 0.00 | 0.00 | 0.00 | 90 | |
| 20260506040015 | 22 | 157 | 1.6 | 6.4 | 0.00 | 0.00 | 0.00 | 90 | |
| 20260506034015 | 22 | 157 | 4.8 | 9.7 | 0.00 | 0.00 | 0.00 | 90 | 1009.7 |
| 20260506033015 | 22 | 157 | 4.8 | 8.0 | 0.00 | 0.00 | 0.00 | 90 | 1009.5 |
| 20260506032015 | 22 | 157 | 3.2 | 6.4 | 0.00 | 0.00 | 0.00 | 88 | 1009.5 |
| 20260506031015 | 22 | 180 | 4.8 | 8.0 | 0.00 | 0.00 | 0.00 | 89 | 1009.5 |
| 20260506030015 | 22 | 157 | 4.8 | 9.7 | 0.00 | 0.00 | 0.00 | 88 | 1009.1 |
| 20260506025015 | 22 | 157 | 4.8 | 9.7 | 0.00 | 0.00 | 0.00 | 87 | 1009.2 |
| 20260506024015 | 22 | 157 | 4.8 | 8.0 | 0.00 | 0.00 | 0.00 | 86 | 1008.9 |
| 20260506022015 | 23 | 157 | 4.8 | 8.0 | 0.00 | 0.00 | 0.00 | 85 | 1008.6 |
| 20260506021015 | 23 | 157 | 3.2 | 6.4 | 0.00 | 0.00 | 0.00 | 85 | 1008.5 |
| 20260506020015 | 23 | 157 | 3.2 | 6.4 | 0.00 | 0.00 | 0.00 | 83 | 1008.5 |
| 20260506015015 | 23 | 157 | 4.8 | 6.4 | 0.00 | 0.00 | 0.00 | 82 | 1008.3 |
| 20260506014016 | 24 | 180 | 4.8 | 9.7 | 0.00 | 0.00 | 0.00 | 81 | 1008.1 |
| 20260506013016 | 24 | 157 | 4.8 | 8.0 | 0.00 | 0.00 | 0.00 | 80 | 1007.9 |
| 20260506012116 | 25 | 180 | 6.4 | 9.7 | 0.00 | 0.00 | 0.00 | 79 | 1007.8 |
| 20260506011015 | 25 | 180 | 6.4 | 9.7 | 0.00 | 0.00 | 0.00 | 79 | 1007.8 |
| 20260506010015 | 25 | 180 | 8.0 | 11.3 | 0.00 | 0.00 | 0.00 | 78 | 1007.6 |
| 20260506005015 | 25 | 157 | 6.4 | 12.9 | 0.00 | 0.00 | 0.00 | 77 | 1007.7 |
| 20260506004015 | 26 | 180 | 8.0 | 16.1 | 0.00 | 0.00 | 0.00 | 77 | 1007.8 |
| 20260506003015 | 26 | 180 | 9.7 | 17.7 | 0.00 | 0.00 | 0.00 | 75 | 1007.8 |
| 20260506002116 | 26 | 157 | 8.0 | 16.1 | 0.00 | 0.00 | 0.00 | 74 | 1008.1 |
| 20260506001016 | 27 | 180 | 9.7 | 19.3 | 0.00 | 0.00 | 0.00 | 73 | 1007.8 |
| 20260505235016 | 27 | 180 | 8.0 | 14.5 | 0.00 | 0.00 | 0.00 | 72 | 1008.0 |
| 20260505234015 | 27 | 180 | 9.7 | 17.7 | 0.00 | 0.00 | 0.00 | 72 | 1007.8 |
| 20260505233016 | 27 | 180 | 11.3 | 19.3 | 0.00 | 0.00 | 0.00 | 72 | 1007.9 |
| 20260505231015 | 27 | 180 | 9.7 | 20.9 | 0.00 | 0.00 | 0.00 | 72 | 1007.9 |
| 20260505230016 | 27 | 157 | 11.3 | 22.5 | 0.00 | 0.00 | 0.00 | 71 | 1007.7 |
| 20260505225016 | 27 | 157 | 12.9 | 20.9 | 0.00 | 0.00 | 0.00 | 72 | 1007.8 |
| 20260505224021 | 27 | 157 | 9.7 | 19.3 | 0.00 | 0.00 | 0.00 | 71 | 1007.8 |
| 20260505223116 | 28 | 180 | 12.9 | 22.5 | 0.00 | 0.00 | 0.00 | 71 | 1007.9 |
| 20260505222016 | 28 | 180 | 14.5 | 22.5 | 0.00 | 0.00 | 0.00 | 71 | 1007.8 |
| 20260505221016 | 28 | 180 | 8.0 | 17.7 | 0.00 | 0.00 | 0.00 | 70 | 1007.9 |
| 20260505220015 | 28 | 157 | 9.7 | 17.7 | 0.00 | 0.00 | 0.00 | 69 | 1008.0 |
| 20260505215016 | 28 | 157 | 9.7 | 19.3 | 0.00 | 0.00 | 0.00 | 70 | 1008.1 |
| 20260505214016 | 28 | 180 | 9.7 | 17.7 | 0.00 | 0.00 | 0.00 | 69 | 1008.3 |
| 20260505213016 | 28 | 180 | 8.0 | 17.7 | 0.00 | 0.00 | 0.00 | 69 | 1008.3 |
| 20260505212016 | 28 | 180 | 12.9 | 29.0 | 0.00 | 0.00 | 0.00 | 69 | 1008.5 |
| 20260505210016 | 28 | 180 | 12.9 | 22.5 | 0.00 | 0.00 | 0.00 | 68 | 1008.7 |
| 20260505205016 | 29 | 202 | 12.9 | 22.5 | 0.00 | 0.00 | 0.00 | 67 | 1009.1 |
| 20260505204016 | 29 | 202 | 9.7 | 17.7 | 0.00 | 0.00 | 0.00 | 65 | 1009.1 |
| 20260505203016 | 30 | 202 | 6.4 | 12.9 | 0.00 | 0.00 | 0.00 | 62 | 1009.4 |
| 20260505202016 | 30 | 202 | 8.0 | 16.1 | 0.00 | 0.00 | 0.00 | 63 | 1009.2 |
| 20260505201116 | 29 | 225 | 9.7 | 19.3 | 0.00 | 0.00 | 0.00 | 62 | 1009.4 |
| 20260505200016 | 29 | 225 | 14.5 | 24.1 | 0.00 | 0.00 | 0.00 | 65 | 1009.3 |
| 20260505195015 | 29 | 225 | 14.5 | 24.1 | 0.00 | 0.00 | 0.00 | 65 | 1009.4 |
| 20260505194015 | 28 | 225 | 11.3 | 19.3 | 0.00 | 0.00 | 0.00 | 66 | 1009.6 |
| 20260505193015 | 28 | 202 | 9.7 | 19.3 | 0.00 | 0.00 | 0.00 | 68 | 1009.7 |
| 20260505192016 | 28 | 202 | 9.7 | 17.7 | 0.00 | 0.00 | 0.00 | 71 | 1009.7 |
| 20260505191016 | 28 | 202 | 9.7 | 20.9 | 0.00 | 0.00 | 0.00 | 71 | 1009.6 |
| 20260505190016 | 27 | 202 | 9.7 | 20.9 | 0.00 | 0.00 | 0.00 | 72 | 1009.7 |
| 20260505185156 | 27 | 180 | 11.3 | 22.5 | 0.00 | 0.00 | 0.00 | 71 | 1009.9 |
| 20260505184116 | 27 | 225 | 9.7 | 20.9 | 0.00 | 0.00 | 0.00 | 73 | 1010.2 |
| 20260505183017 | 27 | 202 | 12.9 | 22.5 | 0.00 | 0.00 | 0.00 | 71 | 1010.5 |
| 20260505182016 | 27 | 202 | 9.7 | 17.7 | 0.00 | 0.00 | 0.00 | 71 | 1010.6 |
| 20260505181016 | 26 | 247 | 11.3 | 20.9 | 0.00 | 0.00 | 0.00 | 75 | 1010.6 |
| 20260505180016 | 26 | 225 | 9.7 | 20.9 | 0.00 | 0.00 | 0.00 | 77 | 1010.8 |
| 20260505175117 | 26 | 225 | 11.3 | 19.3 | 0.00 | 0.00 | 0.00 | 76 | 1010.7 |
| 20260505174016 | 25 | 202 | 8.0 | 17.7 | 0.00 | 0.00 | 0.00 | 79 | 1010.7 |
| 20260505173016 | 25 | 225 | 12.9 | 25.7 | 0.00 | 0.00 | 0.00 | 78 | 1010.9 |
| 20260505172017 | 25 | 202 | 14.5 | 22.5 | 0.00 | 0.00 | 0.00 | 78 | 1010.8 |
| 20260505171117 | 24 | 225 | 12.9 | 22.5 | 0.00 | 0.00 | 0.00 | 82 | 1011.0 |
| 20260505170016 | 24 | 202 | 19.3 | 25.7 | 0.00 | 0.00 | 0.00 | 79 | 1010.9 |
| 20260505165016 | 24 | 225 | 16.1 | 22.5 | 0.00 | 0.00 | 0.00 | 82 | 1010.9 |
| 20260505164016 | 23 | 225 | 12.9 | 22.5 | 0.00 | 0.00 | 0.00 | 82 | 1010.9 |
| 20260505163016 | 23 | 202 | 12.9 | 20.9 | 0.00 | 0.00 | 0.00 | 83 | 1010.9 |
| 20260505162016 | -17 | 202 | 14.5 | 22.5 | 0.00 | 0.00 | 0.00 | ||
| 20260505161016 | -17 | 202 | 12.9 | 24.1 | 0.00 | 0.00 | 0.00 | ||
| 20260505152016 | 20 | 225 | 11.3 | 22.5 | 0.00 | 0.00 | 0.00 | 93 | 1010.3 |
| 20260505151016 | 20 | 202 | 16.1 | 27.4 | 0.00 | 0.00 | 0.00 | 93 | 1010.2 |
| 20260505150116 | 20 | 0.0 | 0.0 | 0.00 | 0.00 | 0.00 | 94 | 1010.1 |